COSMOS 2251 DEB, 35959

Orbit data source: Space-Track

COSMOS 2251 DEB, 35959 is space debris in LEO originally from a launch on Wed, 16 Jun 1993 UTC launched from the Plesetsk Missile And Space Complex (PKMTR). The debris from Iridium 33, an American commercial communications satellite, has been tracked extensively since its accidental collision with the defunct Russian satellite Cosmos 2251 in 2009. This event, occurring at high speed in low Earth orbit (LEO), generated thousands of pieces of space debris, significantly increasing the risk of further collisions. The Iridium 33 debris cloud has impacted space traffic management and orbital debris mitigation strategies, making it a subject of ongoing study in space situational awareness.

Loading next visibility...
Identifier
35959, 1993-036AUZ
Orbit
LEO
Country
Flag of CISCIS
Related business
Manufacturer
Unknown
Mission
Spacecraft
Bus & Motor
Unknown
Mass
Unknown
Launch date (UTC)
1993-06-16 (33 years ago)
Launch vehicle
Unknown
Launch site
Plesetsk Missile And Space Complex (PKMTR)
Object type
Payload
Rocket body
Debris
Shape & HBR
Unknown shape, 0.1 m
Radar Cross Section
Small (<0.1 m²)

Expand to show TLE details & history
Last TLE update: 7 hours ago

TLE from 7 hours ago
0 COSMOS 2251 DEB
1 35959U 93036AUZ 25354.14399498  .00000222  00000-0  88223-4 0  9991
2 35959  74.0330 298.5090 0021894  16.9587 343.2292 14.34140877850347
Epoch: 2025-12-20T03:27Z
TLE epoch observation values (Epoch: 2025-12-20T03:27:21.166Z)
Latitude
0.00003°
Longitude
157.6958°
Altitude
765.531 km
Speed
7.479 km/s
True Right ascension
19h 54m 02s
True Declination
0° 00' 00"
Sunlit
Object was in daylight at epoch
Visualization orbit readout
Latitude
Unknown
Longitude
Unknown
Altitude
Unknown
Speed
Unknown
Apparent Right ascension
Unknown
Apparent Declination
Unknown
Sunlit
N/A
Visualization observer readout
Local Sidereal Time
09:07:10
Azimuth
Unknown
Elevation
Unknown
Doppler factor
Unknown
Orbital elements
Apogee altitude
791.211 km
Perigee altitude
759.887 km
Semi-major axis
7,153.686 km
Eccentricity
0.00219
Inclination
74.033°
RAAN
298.509°
Arg. of periapsis
16.9587°
True anomaly
343.15662°
Mean anomaly
343.2292°
Eccentric anomaly
343.19293°
Mean motion
3.58714 °/min
Orbital period
100.36 mins
BSTAR
0.000088223

Documentation

Showing up to 5 results
|